This is the latest recevied weather packets stored in our database for station/object IW1CGW-23. If no packets are shown the sender has not sent any weather packets the latest 10 day(s).
| Time | Temp. | Humidity | Pressure | Rain* | Wind** | Luminosity | Snow |
|---|---|---|---|---|---|---|---|
| 1777905652 | 18.33° C | 76% | 1017 hPa | - | - | - | - |
| 1777902517 | 18.33° C | 79% | 1017.2 hPa | - | - | - | - |
| 1777900166 | 18.89° C | 76% | 1017.4 hPa | - | - | - | - |
| 1777899382 | 18.89° C | 78% | 1017.6 hPa | - | - | - | - |
| 1777897031 | 18.33° C | 76% | 1017.9 hPa | - | - | - | - |
| 1777885266 | 18.89° C | 67% | 1018.2 hPa | - | - | - | - |
| 1777882132 | 18.33° C | 68% | 1018.3 hPa | - | - | - | - |
| 1777881349 | 17.78° C | 68% | 1018.2 hPa | - | - | - | - |
| 1777880565 | 18.33° C | 68% | 1018.2 hPa | - | - | - | - |
| 1777879782 | 17.78° C | 68% | 1018.5 hPa | - | - | - | - |
| 1777878216 | 17.78° C | 68% | 1018 hPa | - | - | - | - |
| 1777877434 | 17.22° C | 68% | 1017.8 hPa | - | - | - | - |
| 1777875085 | 16.67° C | 68% | 1017.5 hPa | - | - | - | - |
| 1777874302 | 16.67° C | 68% | 1017.4 hPa | - | - | - | - |
| 1777872739 | 15.56° C | 68% | 1017.3 hPa | - | - | - | - |
| 1777868831 | 14.44° C | 71% | 1017.7 hPa | - | - | - | - |
| 1777868049 | 14.44° C | 71% | 1017.6 hPa | - | - | - | - |
| 1777867269 | 14.44° C | 71% | 1017.7 hPa | - | - | - | - |
| 1777864929 | 14.44° C | 72% | 1017.6 hPa | - | - | - | - |
| 1777861798 | 14.44° C | 74% | 1017.8 hPa | - | - | - | - |
| 1777861017 | 14.44° C | 74% | 1017.8 hPa | - | - | - | - |
| 1777860235 | 14.44° C | 74% | 1017.8 hPa | - | - | - | - |
| 1777851639 | 15° C | 76% | 1018.8 hPa | - | - | - | - |
| 1777850075 | 15° C | 77% | 1018.9 hPa | - | - | - | - |
| 1777849293 | 15° C | 77% | 1019 hPa | - | - | - | - |
* Rain since midnight (hover to see other rain measurements)
** Current wind speed in m/s (hover to see current wind gust speed)